Weather History for KCOF - December, 2012

Change the Weather History Date:

Thursday, December 6, 2012

  Actual Average Record
Temperature  
Mean Temperature 71 °F -  
Max Temperature 76 °F 72 °F 82 °F (2004)
Min Temperature 66 °F 61 °F 42 °F (2010)
Cooling Degree Days 6    
Growing Degree Days 21 (Base 50)    
Moisture  
Dew Point 65 °F    
Average Humidity 87    
Maximum Humidity 94    
Minimum Humidity 66    
Precipitation  
Precipitation 0.00 in - - ()
Sea Level Pressure  
Sea Level Pressure 30.02 in    
Wind  
Wind Speed 5 mph (NE)    
Max Wind Speed 12 mph    
Max Gust Speed -    
Visibility 10 miles    
Events Rain    
Averages and records for this station are not official NWS values.
T = Trace of Precipitation, MM = Missing Value Source: NWS Daily Summary

Daily Weather History Graph

Daily Weather History Graph

Search for Another Location

Airport or City:

Trip Planner

Search our weather history database for the weather conditions in past years. The results will help you decide how hot, cold, wet, or windy it might be!

Date:

Astronomy

Dec. 06, 2012 Rise Set
Actual Time 7:01 AM EST 5:26 PM EST
Civil Twilight 6:35 AM EST 5:51 PM EST
Nautical Twilight 6:06 AM EST 6:21 PM EST
Astronomical Twilight 5:37 AM EST 6:49 PM EST
Moon No Moon Rise 12:21 PM EST (12/6)
Length of Visible Light 11h 16m
Length of Day
10h 25m
Waning Gibbous, 49% of the Moon is Illuminated
Dec 6
Waning Gibbous
Dec 13
New
Dec 20
First Quarter
Dec 28
Full
Jan 4
Last Quarter

Hourly Weather History & Observations

Time (EST) Temp. Dew Point Humidity Pressure Visibility Wind Dir Wind Speed Gust Speed Precip Events Conditions
12:55 AM 68.4 °F 64.0 °F 86% 30.06 in 10.0 mi North 5.8 mph - N/A   Mostly Cloudy
1:55 AM 66.9 °F 63.7 °F 89% 30.05 in 10.0 mi North 3.5 mph - N/A   Partly Cloudy
2:22 AM 68.0 °F 64.4 °F 88% 30.05 in 10.0 mi North 4.6 mph - N/A   Light Drizzle
2:36 AM 68.0 °F 64.4 °F 88% 30.04 in 10.0 mi NNE 3.5 mph - N/A   Overcast
2:44 AM 68.0 °F 64.4 °F 88% 30.04 in 10.0 mi NNE 5.8 mph - N/A   Light Drizzle
2:55 AM 67.8 °F 64.0 °F 88% 30.04 in 10.0 mi North 6.9 mph - 0.00 in   Light Drizzle
3:00 AM 68.0 °F 64.4 °F 88% 30.04 in 10.0 mi NNE 5.8 mph - N/A   Overcast
3:55 AM 68.0 °F 65.3 °F 91% 30.03 in 10.0 mi NNW 3.5 mph - 0.00 in   Overcast
4:02 AM 68.0 °F 66.2 °F 94% 30.03 in 10.0 mi NNW 5.8 mph - N/A Rain Light Rain
4:16 AM 68.0 °F 64.4 °F 88% 30.02 in 10.0 mi Calm Calm - N/A   Mostly Cloudy
4:55 AM 67.8 °F 64.6 °F 89% 30.02 in 10.0 mi NW 4.6 mph - 0.00 in   Mostly Cloudy
5:55 AM 67.8 °F 63.7 °F 87% 30.02 in 10.0 mi North 6.9 mph - N/A   Mostly Cloudy
6:55 AM 66.9 °F 63.1 °F 88% 30.02 in 10.0 mi North 4.6 mph - N/A   Mostly Cloudy
7:55 AM 67.6 °F 64.0 °F 88% 30.04 in 10.0 mi Variable 4.6 mph - N/A   Scattered Clouds
8:17 AM 68.0 °F 66.2 °F 94% 30.05 in 10.0 mi East 9.2 mph - N/A   Light Drizzle
8:26 AM 68.0 °F 66.2 °F 94% 30.05 in 10.0 mi East 8.1 mph - N/A   Overcast
8:55 AM 69.1 °F 65.7 °F 89% 30.05 in 10.0 mi NE 9.2 mph - 0.00 in   Overcast
9:55 AM 69.3 °F 66.2 °F 90% 30.07 in 4.0 mi East 8.1 mph - N/A   Overcast
10:18 AM 69.8 °F 66.2 °F 88% 30.06 in 10.0 mi East 5.8 mph - N/A   Light Drizzle
10:28 AM 69.8 °F 66.2 °F 88% 30.06 in 10.0 mi East 5.8 mph - N/A   Mostly Cloudy
10:55 AM 71.6 °F 64.9 °F 79% 30.06 in 10.0 mi ENE 4.6 mph - 0.00 in   Mostly Cloudy
11:55 AM 76.1 °F 64.0 °F 66% 30.03 in 10.0 mi East 5.8 mph - N/A   Mostly Cloudy
12:55 PM 73.2 °F 65.1 °F 76% 30.01 in 10.0 mi NE 3.5 mph - N/A   Clear
1:55 PM 74.7 °F 66.4 °F 75% 29.97 in 10.0 mi NE 11.5 mph - N/A   Mostly Cloudy
2:55 PM 73.6 °F 66.6 °F 79% 29.97 in 10.0 mi NE 10.4 mph - N/A   Clear
3:55 PM 72.5 °F 67.1 °F 83% 29.96 in 10.0 mi East 9.2 mph - N/A   Clear
4:55 PM 72.0 °F 64.9 °F 78% 29.97 in 10.0 mi ENE 8.1 mph - N/A   Clear
5:55 PM 70.3 °F 63.7 °F 79% 29.98 in 10.0 mi East 3.5 mph - N/A   Clear
6:55 PM 69.4 °F 64.4 °F 84% 29.98 in 10.0 mi NNE 9.2 mph - N/A   Clear
7:55 PM 68.0 °F 64.6 °F 89% 29.99 in 10.0 mi North 6.9 mph - N/A   Clear
8:55 PM 68.2 °F 64.6 °F 88% 29.98 in 10.0 mi North 3.5 mph - N/A   Clear
9:55 PM 68.9 °F 65.8 °F 90% 29.99 in 10.0 mi ENE 5.8 mph - N/A   Clear
10:55 PM 69.1 °F 67.1 °F 93% 29.99 in 8.0 mi Calm Calm - N/A   Clear
10:58 PM 69.8 °F 68.0 °F 94% 29.99 in 5.0 mi Calm Calm - N/A   Clear
11:09 PM 68.0 °F 66.2 °F 94% 29.99 in 5.0 mi Calm Calm - N/A   Clear
11:55 PM 68.5 °F 66.6 °F 93% 29.98 in 10.0 mi Calm Calm - N/A   Mostly Cloudy